Location: Harburg
(48.7667°N, 10.6667°E)
Time: 08:53:51
(UTC+00:00)

Lacrosse 4 Rocket - Pass Details

Date: 18 September 2020
Orbit: 543 x 615 km, 68.0° (Epoch: 27 October)

Event Time Altitude Azimuth Distance (km) Brightness Sun altitude
Rises 19:20:08 0° 336° (NNW) 2,716 5.7 -19.4°
Reaches altitude 10° 19:23:44 10° 9° (N) 1,822 4.2 -19.9°
Maximum altitude 19:25:16 12° 31° (NNE) 1,709 3.8 -20.2°
Enters shadow 19:25:50 12° 40° (NE) 1,726 3.7 -20.2°
